Time,TemperatureF,DewpointF,PressureIn,WindDirection,WindDirectionDegrees,WindSpeedMPH,WindSpeedGustMPH,Humidity,HourlyPrecipIn,Conditions,Clouds,dailyrainin,SolarRadiationWatts/m^2,SoftwareType,DateUTC
2013-04-29 00:00:00,76.1,37.8,29.81,SW,225,7.0,12.0,25,0.00,,---,0.00,0.00,VWS V14.01,2013-04-29 07:00:00,
2013-04-29 00:06:00,75.4,37.0,29.82,WSW,238,7.0,14.0,25,0.00,,,0.00,0,weatherlink.com 1.10,2013-04-29 07:06:00,
2013-04-29 00:15:00,75.5,37.2,29.81,SW,225,9.0,18.0,25,0.00,,---,0.00,0.00,VWS V14.01,2013-04-29 07:15:00,
2013-04-29 00:21:00,75.6,38.0,29.81,SW,215,9.0,18.0,26,0.00,,,0.00,0,weatherlink.com 1.10,2013-04-29 07:21:00,
2013-04-29 00:30:00,75.5,38.2,29.81,SW,225,10.0,18.0,26,0.00,,---,0.00,0.00,VWS V14.01,2013-04-29 07:30:00,
2013-04-29 00:36:00,75.1,38.0,29.81,SW,234,12.0,17.0,26,0.00,,,0.00,0,weatherlink.com 1.10,2013-04-29 07:36:00,
2013-04-29 00:45:00,75.1,36.9,29.82,SW,225,11.0,19.0,25,0.00,,---,0.00,0.00,VWS V14.01,2013-04-29 07:45:00,
2013-04-29 00:51:00,75.8,36.0,29.82,SW,234,15.0,19.0,24,0.00,,,0.00,0,weatherlink.com 1.10,2013-04-29 07:51:00,
2013-04-29 01:00:00,75.9,37.6,29.81,SW,225,11.0,19.0,25,0.00,,---,0.00,0.00,VWS V14.01,2013-04-29 08:00:00,
2013-04-29 01:06:00,75.6,38.0,29.82,SW,222,8.0,17.0,26,0.00,,,0.00,0,weatherlink.com 1.10,2013-04-29 08:06:00,
2013-04-29 01:15:00,75.4,39.1,29.81,SW,225,9.0,16.0,27,0.00,,---,0.00,0.00,VWS V14.01,2013-04-29 08:15:00,
2013-04-29 01:21:00,75.1,38.0,29.81,SW,236,10.0,17.0,26,0.00,,,0.00,0,weatherlink.com 1.10,2013-04-29 08:21:00,
2013-04-29 01:30:00,75.2,34.9,29.81,SW,225,10.0,17.0,23,0.00,,---,0.00,0.00,VWS V14.01,2013-04-29 08:30:00,
2013-04-29 01:36:00,75.1,36.0,29.82,SW,229,8.0,17.0,24,0.00,,,0.00,0,weatherlink.com 1.10,2013-04-29 08:36:00,
2013-04-29 01:45:00,74.9,37.7,29.82,SW,225,9.0,16.0,26,0.00,,---,0.00,0.00,VWS V14.01,2013-04-29 08:45:00,
2013-04-29 01:51:00,74.0,37.0,29.82,SW,224,8.0,13.0,26,0.00,,,0.00,0,weatherlink.com 1.10,2013-04-29 08:51:00,
2013-04-29 02:00:00,73.9,38.8,29.82,SW,225,8.0,13.0,28,0.00,,---,0.00,0.00,VWS V14.01,2013-04-29 09:00:00,
2013-04-29 02:06:00,73.5,37.0,29.82,WSW,237,8.0,11.0,27,0.00,,,0.00,0,weatherlink.com 1.10,2013-04-29 09:06:00,
2013-04-29 02:15:00,73.4,36.5,29.82,SW,225,6.0,10.0,26,0.00,,---,0.00,0.00,VWS V14.01,2013-04-29 09:15:00,
2013-04-29 02:21:00,73.0,36.0,29.82,SW,216,7.0,10.0,26,0.00,,,0.00,0,weatherlink.com 1.10,2013-04-29 09:21:00,
2013-04-29 02:30:00,73.0,36.1,29.81,SW,225,6.0,11.0,26,0.00,,---,0.00,0.00,VWS V14.01,2013-04-29 09:30:00,
2013-04-29 02:36:00,73.0,37.0,29.81,WSW,238,7.0,11.0,27,0.00,,,0.00,0,weatherlink.com 1.10,2013-04-29 09:36:00,
2013-04-29 02:45:00,72.9,37.0,29.81,SW,225,7.0,12.0,27,0.00,,---,0.00,0.00,VWS V14.01,2013-04-29 09:45:00,
2013-04-29 02:51:00,72.3,37.0,29.81,SW,221,8.0,10.0,28,0.00,,,0.00,0,weatherlink.com 1.10,2013-04-29 09:51:00,
2013-04-29 03:00:00,72.2,37.3,29.80,SW,225,7.0,11.0,28,0.00,,---,0.00,0.00,VWS V14.01,2013-04-29 10:00:00,
2013-04-29 03:06:00,72.1,38.0,29.80,SW,236,6.0,11.0,29,0.00,,,0.00,0,weatherlink.com 1.10,2013-04-29 10:06:00,
2013-04-29 03:15:00,72.1,38.1,29.80,SW,225,7.0,12.0,29,0.00,,---,0.00,0.00,VWS V14.01,2013-04-29 10:15:00,
2013-04-29 03:21:00,71.8,39.0,29.80,SW,230,9.0,11.0,30,0.00,,,0.00,0,weatherlink.com 1.10,2013-04-29 10:21:00,
2013-04-29 03:30:00,71.9,38.0,29.80,SW,225,6.0,11.0,29,0.00,,---,0.00,0.00,VWS V14.01,2013-04-29 10:30:00,
2013-04-29 03:36:00,71.6,38.0,29.80,SW,216,7.0,11.0,29,0.00,,,0.00,0,weatherlink.com 1.10,2013-04-29 10:36:00,
2013-04-29 03:45:00,71.6,37.7,29.80,SW,225,7.0,13.0,29,0.00,,---,0.00,0.00,VWS V14.01,2013-04-29 10:45:00,
2013-04-29 03:51:00,72.1,37.0,29.80,SW,236,9.0,13.0,28,0.00,,,0.00,0,weatherlink.com 1.10,2013-04-29 10:51:00,
2013-04-29 04:00:00,72.2,37.3,29.80,SW,225,7.0,12.0,28,0.00,,---,0.00,0.00,VWS V14.01,2013-04-29 11:00:00,
2013-04-29 04:06:00,72.5,37.0,29.80,SSW,212,9.0,13.0,27,0.00,,,0.00,0,weatherlink.com 1.10,2013-04-29 11:06:00,
2013-04-29 04:15:00,72.4,37.5,29.80,SW,225,8.0,13.0,28,0.00,,---,0.00,0.00,VWS V14.01,2013-04-29 11:15:00,
2013-04-29 04:21:00,72.3,37.0,29.80,WSW,239,7.0,14.0,28,0.00,,,0.00,0,weatherlink.com 1.10,2013-04-29 11:21:00,
2013-04-29 04:30:00,72.2,37.3,29.80,SW,225,8.0,14.0,28,0.00,,---,0.00,0.00,VWS V14.01,2013-04-29 11:30:00,
2013-04-29 04:36:00,71.5,37.0,29.80,SW,223,6.0,11.0,28,0.00,,,0.00,0,weatherlink.com 1.10,2013-04-29 11:36:00,
2013-04-29 04:45:00,71.5,36.7,29.81,SW,225,7.0,11.0,28,0.00,,---,0.00,0.00,VWS V14.01,2013-04-29 11:45:00,
2013-04-29 04:51:00,71.5,38.0,29.81,WSW,238,8.0,11.0,29,0.00,,,0.00,0,weatherlink.com 1.10,2013-04-29 11:51:00,
2013-04-29 05:00:00,71.5,37.6,29.81,SW,225,6.0,10.0,29,0.00,,---,0.00,0.00,VWS V14.01,2013-04-29 12:00:00,
2013-04-29 05:06:00,71.3,36.0,29.81,WSW,239,4.0,10.0,28,0.00,,,0.00,0,weatherlink.com 1.10,2013-04-29 12:06:00,
2013-04-29 05:15:00,71.3,37.4,29.81,WSW,248,5.0,10.0,29,0.00,,---,0.00,0.00,VWS V14.01,2013-04-29 12:15:00,
2013-04-29 05:21:00,70.9,37.0,29.81,SW,232,5.0,9.0,29,0.00,,,0.00,0,weatherlink.com 1.10,2013-04-29 12:21:00,
2013-04-29 05:30:00,70.8,37.0,29.81,WSW,248,5.0,9.0,29,0.00,,---,0.00,0.00,VWS V14.01,2013-04-29 12:30:00,
2013-04-29 05:37:00,70.4,37.0,29.81,WSW,252,4.0,9.0,29,0.00,,,0.00,0,weatherlink.com 1.10,2013-04-29 12:37:00,
2013-04-29 05:45:00,70.4,36.7,29.81,WSW,248,5.0,10.0,29,0.00,,---,0.00,0.00,VWS V14.01,2013-04-29 12:45:00,
2013-04-29 05:52:00,69.9,36.0,29.81,SW,230,2.0,7.0,29,0.00,,,0.00,0,weatherlink.com 1.10,2013-04-29 12:52:00,
2013-04-29 06:00:00,69.9,37.1,29.82,SW,225,3.0,7.0,30,0.00,,---,0.00,1.00,VWS V14.01,2013-04-29 13:00:00,
2013-04-29 06:07:00,69.6,38.0,29.82,WSW,248,1.0,3.0,31,0.00,,,0.00,9,weatherlink.com 1.10,2013-04-29 13:07:00,
2013-04-29 06:15:00,69.4,38.3,29.82,West,270,2.0,6.0,32,0.00,,---,0.00,13.00,VWS V14.01,2013-04-29 13:15:00,
2013-04-29 06:22:00,68.3,37.0,29.82,West,276,2.0,4.0,32,0.00,,,0.00,35,weatherlink.com 1.10,2013-04-29 13:22:00,
2013-04-29 06:30:00,68.3,36.5,29.83,West,270,2.0,5.0,31,0.00,,---,0.00,42.00,VWS V14.01,2013-04-29 13:30:00,
2013-04-29 06:37:00,67.9,36.0,29.83,WSW,257,2.0,5.0,31,0.00,,,0.00,83,weatherlink.com 1.10,2013-04-29 13:37:00,
2013-04-29 06:45:00,67.9,36.2,29.83,WSW,248,2.0,5.0,31,0.00,,---,0.00,90.00,VWS V14.01,2013-04-29 13:45:00,
2013-04-29 06:52:00,67.9,36.0,29.83,WSW,251,1.0,4.0,31,0.00,,,0.00,132,weatherlink.com 1.10,2013-04-29 13:52:00,
2013-04-29 07:00:00,68.0,36.3,29.83,WSW,248,1.0,4.0,31,0.00,,---,0.00,138.00,VWS V14.01,2013-04-29 14:00:00,
2013-04-29 07:07:00,68.6,37.0,29.84,WSW,251,1.0,3.0,31,0.00,,,0.00,179,weatherlink.com 1.10,2013-04-29 14:07:00,
2013-04-29 07:15:00,68.7,35.2,29.84,WSW,248,2.0,5.0,29,0.00,,---,0.00,186.00,VWS V14.01,2013-04-29 14:15:00,
2013-04-29 07:22:00,70.3,36.0,29.84,SW,228,2.0,5.0,29,0.00,,,0.00,230,weatherlink.com 1.10,2013-04-29 14:22:00,
2013-04-29 07:30:00,70.4,35.8,29.83,SW,225,2.0,5.0,28,0.00,,---,0.00,235.00,VWS V14.01,2013-04-29 14:30:00,
2013-04-29 07:37:00,72.3,37.0,29.84,WSW,241,7.0,7.0,28,0.00,,,0.00,283,weatherlink.com 1.10,2013-04-29 14:37:00,
2013-04-29 07:45:00,72.5,37.6,29.84,SW,225,3.0,7.0,28,0.00,,---,0.00,288.00,VWS V14.01,2013-04-29 14:45:00,
2013-04-29 07:52:00,73.9,38.0,29.84,West,268,2.0,6.0,27,0.00,,,0.00,332,weatherlink.com 1.10,2013-04-29 14:52:00,
2013-04-29 08:00:00,73.8,36.8,29.84,WSW,248,3.0,6.0,26,0.00,,---,0.00,340.00,VWS V14.01,2013-04-29 15:00:00,
2013-04-29 08:07:00,74.6,34.0,29.84,WNW,288,3.0,5.0,23,0.00,,,0.00,385,weatherlink.com 1.10,2013-04-29 15:07:00,
2013-04-29 08:15:00,74.6,33.3,29.84,WSW,248,2.0,5.0,22,0.00,,---,0.00,389.00,VWS V14.01,2013-04-29 15:15:00,
2013-04-29 08:22:00,75.6,34.0,29.84,WSW,251,0.0,4.0,22,0.00,,,0.00,439,weatherlink.com 1.10,2013-04-29 15:22:00,
2013-04-29 08:30:00,75.6,34.1,29.84,WSW,248,1.0,4.0,22,0.00,,---,0.00,444.00,VWS V14.01,2013-04-29 15:30:00,
2013-04-29 08:37:00,76.8,35.0,29.84,West,278,2.0,4.0,22,0.00,,,0.00,489,weatherlink.com 1.10,2013-04-29 15:37:00,
2013-04-29 08:45:00,76.9,34.0,29.84,West,270,2.0,4.0,21,0.00,,---,0.00,494.00,VWS V14.01,2013-04-29 15:45:00,
2013-04-29 08:52:00,78.1,34.0,29.84,WNW,302,4.0,7.0,20,0.00,,,0.00,541,weatherlink.com 1.10,2013-04-29 15:52:00,
2013-04-29 09:00:00,78.2,32.6,29.84,WNW,292,2.0,7.0,19,0.00,,---,0.00,545.00,VWS V14.01,2013-04-29 16:00:00,
2013-04-29 09:07:00,79.0,33.0,29.84,NW,316,4.0,5.0,19,0.00,,,0.00,591,weatherlink.com 1.10,2013-04-29 16:07:00,
2013-04-29 09:15:00,79.1,32.0,29.84,NW,315,2.0,5.0,18,0.00,,---,0.00,594.00,VWS V14.01,2013-04-29 16:15:00,
2013-04-29 09:23:00,80.5,32.0,29.84,NW,314,1.0,4.0,17,0.00,,,0.00,638,weatherlink.com 1.10,2013-04-29 16:23:00,
2013-04-29 09:30:00,80.6,30.3,29.84,NW,315,1.0,5.0,16,0.00,,---,0.00,642.00,VWS V14.01,2013-04-29 16:30:00,
2013-04-29 09:38:00,82.4,30.0,29.84,West,276,1.0,4.0,15,0.00,,,0.00,686,weatherlink.com 1.10,2013-04-29 16:38:00,
2013-04-29 09:45:00,82.5,30.2,29.84,West,270,1.0,4.0,15,0.00,,---,0.00,688.00,VWS V14.01,2013-04-29 16:45:00,
2013-04-29 09:53:00,83.8,31.0,29.84,WNW,300,0.0,4.0,15,0.00,,,0.00,728,weatherlink.com 1.10,2013-04-29 16:53:00,
2013-04-29 10:00:00,84.0,29.7,29.84,WNW,292,1.0,4.0,14,0.00,,---,0.00,729.00,VWS V14.01,2013-04-29 17:00:00,
2013-04-29 10:08:00,85.5,29.0,29.84,WNW,284,0.0,4.0,13,0.00,,,0.00,763,weatherlink.com 1.10,2013-04-29 17:08:00,
2013-04-29 10:15:00,85.5,29.1,29.83,WNW,292,1.0,4.0,13,0.00,,---,0.00,769.00,VWS V14.01,2013-04-29 17:15:00,
2013-04-29 10:23:00,87.0,30.0,29.83,NNW,336,3.0,3.0,13,0.00,,,0.00,805,weatherlink.com 1.10,2013-04-29 17:23:00,
2013-04-29 10:30:00,87.0,30.3,29.83,NNW,338,1.0,3.0,13,0.00,,---,0.00,807.00,VWS V14.01,2013-04-29 17:30:00,
2013-04-29 10:38:00,89.0,28.0,29.83,NE,55,4.0,5.0,11,0.00,,,0.00,842,weatherlink.com 1.10,2013-04-29 17:38:00,
2013-04-29 10:45:00,88.9,29.8,29.83,NE,45,1.0,5.0,12,0.00,,---,0.00,842.00,VWS V14.01,2013-04-29 17:45:00,
2013-04-29 10:53:00,89.0,30.0,29.83,NNW,334,2.0,7.0,12,0.00,,,0.00,872,weatherlink.com 1.10,2013-04-29 17:53:00,
2013-04-29 11:00:00,89.1,29.9,29.83,NNE,22,2.0,7.0,12,0.00,,---,0.00,872.00,VWS V14.01,2013-04-29 18:00:00,
2013-04-29 11:08:00,88.6,30.0,29.83,NNE,30,1.0,7.0,12,0.00,,,0.00,898,weatherlink.com 1.10,2013-04-29 18:08:00,
2013-04-29 11:15:00,89.0,27.7,29.83,NNE,22,2.0,8.0,11,0.00,,---,0.00,898.00,VWS V14.01,2013-04-29 18:15:00,
2013-04-29 11:23:00,89.3,28.0,29.83,East,87,2.0,7.0,11,0.00,,,0.00,921,weatherlink.com 1.10,2013-04-29 18:23:00,
2013-04-29 11:30:00,89.5,28.1,29.82,East,90,2.0,8.0,11,0.00,,---,0.00,922.00,VWS V14.01,2013-04-29 18:30:00,
2013-04-29 11:38:00,91.0,30.0,29.82,ENE,63,1.0,6.0,11,0.00,,,0.00,940,weatherlink.com 1.10,2013-04-29 18:38:00,
2013-04-29 11:45:00,91.0,27.0,29.82,NE,45,1.0,6.0,10,0.00,,---,0.00,941.00,VWS V14.01,2013-04-29 18:45:00,
2013-04-29 11:53:00,92.1,28.0,29.81,East,97,3.0,8.0,10,0.00,,,0.00,953,weatherlink.com 1.10,2013-04-29 18:53:00,
2013-04-29 12:00:00,91.8,27.5,29.81,East,90,3.0,9.0,10,0.00,,---,0.00,954.00,VWS V14.01,2013-04-29 19:00:00,
2013-04-29 12:08:00,91.8,30.0,29.81,ENE,70,5.0,11.0,11,0.00,,,0.00,963,weatherlink.com 1.10,2013-04-29 19:08:00,
2013-04-29 12:15:00,91.4,29.6,29.80,ESE,112,5.0,11.0,11,0.00,,---,0.00,966.00,VWS V14.01,2013-04-29 19:15:00,
2013-04-29 12:23:00,90.7,29.0,29.80,SSE,155,5.0,9.0,11,0.00,,,0.00,974,weatherlink.com 1.10,2013-04-29 19:23:00,
2013-04-29 12:30:00,91.2,27.1,29.79,ENE,68,3.0,9.0,10,0.00,,---,0.00,976.00,VWS V14.01,2013-04-29 19:30:00,
2013-04-29 12:38:00,92.3,28.0,29.79,East,101,0.0,10.0,10,0.00,,,0.00,981,weatherlink.com 1.10,2013-04-29 19:38:00,
2013-04-29 12:45:00,92.5,28.1,29.78,East,90,2.0,10.0,10,0.00,,---,0.00,982.00,VWS V14.01,2013-04-29 19:45:00,
2013-04-29 12:53:00,93.6,29.0,29.77,NNE,20,4.0,11.0,10,0.00,,,0.00,979,weatherlink.com 1.10,2013-04-29 19:53:00,
2013-04-29 13:00:00,93.6,28.9,29.77,North,0,3.0,11.0,10,0.00,,---,0.00,978.00,VWS V14.01,2013-04-29 20:00:00,
2013-04-29 13:08:00,94.5,27.0,29.77,SW,230,5.0,13.0,9,0.00,,,0.00,974,weatherlink.com 1.10,2013-04-29 20:08:00,
2013-04-29 13:15:00,94.4,27.0,29.77,SW,225,6.0,14.0,9,0.00,,---,0.00,974.00,VWS V14.01,2013-04-29 20:15:00,
2013-04-29 13:23:00,93.2,26.0,29.76,SE,131,13.0,13.0,9,0.00,,,0.00,972,weatherlink.com 1.10,2013-04-29 20:23:00,
2013-04-29 13:30:00,93.4,26.2,29.76,SE,135,6.0,13.0,9,0.00,,---,0.00,970.00,VWS V14.01,2013-04-29 20:30:00,
2013-04-29 13:38:00,94.5,25.0,29.75,SE,125,0.0,11.0,8,0.00,,,0.00,954,weatherlink.com 1.10,2013-04-29 20:38:00,
2013-04-29 13:45:00,94.5,27.0,29.75,SE,135,3.0,10.0,9,0.00,,---,0.00,954.00,VWS V14.01,2013-04-29 20:45:00,
2013-04-29 13:54:00,96.8,26.0,29.74,WSW,241,5.0,11.0,8,0.00,,,0.00,944,weatherlink.com 1.10,2013-04-29 20:54:00,
2013-04-29 14:00:00,96.4,25.6,29.74,SW,225,5.0,13.0,8,0.00,,---,0.00,943.00,VWS V14.01,2013-04-29 21:00:00,
2013-04-29 14:09:00,97.5,27.0,29.74,WSW,253,9.0,11.0,8,0.00,,,0.00,928,weatherlink.com 1.10,2013-04-29 21:09:00,
2013-04-29 14:15:00,97.3,26.2,29.73,SW,225,7.0,17.0,8,0.00,,---,0.00,926.00,VWS V14.01,2013-04-29 21:15:00,
2013-04-29 14:24:00,96.3,26.0,29.72,SW,236,8.0,19.0,8,0.00,,,0.00,902,weatherlink.com 1.10,2013-04-29 21:24:00,
2013-04-29 14:30:00,96.4,22.4,29.73,SW,225,7.0,19.0,7,0.00,,---,0.00,904.00,VWS V14.01,2013-04-29 21:30:00,
2013-04-29 14:39:00,96.1,23.0,29.72,SW,218,10.0,15.0,7,0.00,,,0.00,881,weatherlink.com 1.10,2013-04-29 21:39:00,
2013-04-29 14:45:00,96.2,22.3,29.72,SW,225,8.0,15.0,7,0.00,,---,0.00,880.00,VWS V14.01,2013-04-29 21:45:00,
2013-04-29 14:54:00,96.6,19.0,29.71,SW,220,6.0,15.0,6,0.00,,,0.00,856,weatherlink.com 1.10,2013-04-29 21:54:00,
2013-04-29 15:00:00,96.6,18.9,29.71,SW,225,6.0,15.0,6,0.00,,---,0.00,850.00,VWS V14.01,2013-04-29 22:00:00,
2013-04-29 15:09:00,97.3,20.0,29.70,WSW,237,4.0,12.0,6,0.00,,,0.00,814,weatherlink.com 1.10,2013-04-29 22:09:00,
2013-04-29 15:15:00,97.2,19.4,29.70,SSE,158,5.0,12.0,6,0.00,,---,0.00,814.00,VWS V14.01,2013-04-29 22:15:00,
2013-04-29 15:24:00,96.8,19.0,29.70,WNW,287,2.0,15.0,6,0.00,,,0.00,777,weatherlink.com 1.10,2013-04-29 22:24:00,
2013-04-29 15:30:00,97.0,19.2,29.69,SW,225,7.0,15.0,6,0.00,,---,0.00,778.00,VWS V14.01,2013-04-29 22:30:00,
2013-04-29 15:39:00,96.8,19.0,29.68,South,189,6.0,14.0,6,0.00,,,0.00,738,weatherlink.com 1.10,2013-04-29 22:39:00,
2013-04-29 15:45:00,96.7,19.0,29.68,SSW,202,7.0,16.0,6,0.00,,---,0.00,738.00,VWS V14.01,2013-04-29 22:45:00,
2013-04-29 15:54:00,96.1,19.0,29.67,SSE,168,8.0,14.0,6,0.00,,,0.00,696,weatherlink.com 1.10,2013-04-29 22:54:00,
2013-04-29 16:00:00,96.3,18.7,29.67,SW,225,8.0,15.0,6,0.00,,---,0.00,696.00,VWS V14.01,2013-04-29 23:00:00,
2013-04-29 16:09:00,95.9,19.0,29.67,South,178,18.0,19.0,6,0.00,,,0.00,647,weatherlink.com 1.10,2013-04-29 23:09:00,
2013-04-29 16:15:00,95.9,22.0,29.67,SSW,202,10.0,19.0,7,0.00,,---,0.00,651.00,VWS V14.01,2013-04-29 23:15:00,
2013-04-29 16:24:00,95.6,22.0,29.66,South,178,8.0,20.0,7,0.00,,,0.00,598,weatherlink.com 1.10,2013-04-29 23:24:00,
2013-04-29 16:30:00,95.6,21.8,29.66,South,180,10.0,20.0,7,0.00,,---,0.00,596.00,VWS V14.01,2013-04-29 23:30:00,
2013-04-29 16:39:00,95.9,26.0,29.66,SSW,201,8.0,19.0,8,0.00,,,0.00,540,weatherlink.com 1.10,2013-04-29 23:39:00,
2013-04-29 16:45:00,95.9,28.1,29.66,SSW,202,9.0,22.0,9,0.00,,---,0.00,542.00,VWS V14.01,2013-04-29 23:45:00,
2013-04-29 16:54:00,95.4,31.0,29.65,WSW,237,10.0,22.0,10,0.00,,,0.00,490,weatherlink.com 1.10,2013-04-29 23:54:00,
2013-04-29 17:00:00,95.3,30.2,29.65,SW,225,9.0,22.0,10,0.00,,---,0.00,493.00,VWS V14.01,2013-04-30 00:00:00,
2013-04-29 17:09:00,94.7,32.0,29.65,West,274,10.0,19.0,11,0.00,,,0.00,441,weatherlink.com 1.10,2013-04-30 00:09:00,
2013-04-29 17:15:00,94.6,32.0,29.65,WSW,248,11.0,20.0,11,0.00,,---,0.00,442.00,VWS V14.01,2013-04-30 00:15:00,
2013-04-29 17:24:00,93.8,32.0,29.65,SSW,213,15.0,20.0,11,0.00,,,0.00,155,weatherlink.com 1.10,2013-04-30 00:24:00,
2013-04-29 17:30:00,93.8,31.4,29.65,SW,225,10.0,20.0,11,0.00,,---,0.00,336.00,VWS V14.01,2013-04-30 00:30:00,
2013-04-29 17:39:00,93.4,34.0,29.64,West,281,6.0,18.0,12,0.00,,,0.00,345,weatherlink.com 1.10,2013-04-30 00:39:00,
2013-04-29 17:45:00,93.5,33.3,29.64,West,270,9.0,18.0,12,0.00,,---,0.00,348.00,VWS V14.01,2013-04-30 00:45:00,
2013-04-29 17:54:00,92.9,33.0,29.64,WNW,295,6.0,15.0,12,0.00,,,0.00,297,weatherlink.com 1.10,2013-04-30 00:54:00,
2013-04-29 18:00:00,92.8,30.6,29.64,West,270,8.0,19.0,11,0.00,,---,0.00,300.00,VWS V14.01,2013-04-30 01:00:00,
2013-04-29 18:09:00,92.1,30.0,29.64,WNW,299,10.0,19.0,11,0.00,,,0.00,250,weatherlink.com 1.10,2013-04-30 01:09:00,
2013-04-29 18:15:00,92.0,30.0,29.65,West,270,11.0,19.0,11,0.00,,---,0.00,252.00,VWS V14.01,2013-04-30 01:15:00,
2013-04-29 18:24:00,91.0,30.0,29.64,West,272,9.0,18.0,11,0.00,,,0.00,209,weatherlink.com 1.10,2013-04-30 01:24:00,
2013-04-29 18:30:00,91.0,29.3,29.64,West,270,10.0,19.0,11,0.00,,---,0.00,210.00,VWS V14.01,2013-04-30 01:30:00,
2013-04-29 18:39:00,89.7,33.0,29.64,West,265,8.0,20.0,13,0.00,,,0.00,160,weatherlink.com 1.10,2013-04-30 01:39:00,
2013-04-29 18:45:00,89.8,34.3,29.64,West,270,11.0,20.0,14,0.00,,---,0.00,160.00,VWS V14.01,2013-04-30 01:45:00,
2013-04-29 18:54:00,88.4,32.0,29.65,West,264,15.0,23.0,13,0.00,,,0.00,109,weatherlink.com 1.10,2013-04-30 01:54:00,
2013-04-29 19:00:00,92.8,30.6,29.64,West,270,8.0,19.0,11,0.00,,---,0.00,300.00,VWS V14.01,2013-04-30 02:00:00,
2013-04-29 19:04:00,89.8,34.3,29.64,West,270,11.0,20.0,14,0.00,,---,0.00,160.00,VWS V14.01,2013-04-30 02:04:00,
2013-04-29 19:09:00,86.7,35.2,29.65,WNW,293,9.0,21.0,16,0.00,,---,0.00,35.00,VWS V14.01,2013-04-30 02:09:00,
2013-04-29 19:14:00,86.1,36.2,29.65,WNW,284,14.0,21.0,17,0.00,,---,0.00,32.00,VWS V14.01,2013-04-30 02:14:00,
2013-04-29 19:15:00,85.9,36.1,29.64,WSW,255,7.0,21.0,17,0.00,,---,0.00,30.00,VWS V14.01,2013-04-30 02:15:00,
2013-04-29 19:19:00,85.5,37.2,29.64,WSW,253,13.0,20.0,18,0.00,,---,0.00,18.00,VWS V14.01,2013-04-30 02:19:00,
2013-04-29 19:23:00,84.9,36.7,29.64,WSW,253,14.0,24.0,18,0.00,,---,0.00,14.00,VWS V14.01,2013-04-30 02:23:00,
2013-04-29 19:28:00,84.5,37.8,29.64,West,263,13.0,24.0,19,0.00,,---,0.00,9.00,VWS V14.01,2013-04-30 02:28:00,
2013-04-29 19:30:00,84.3,37.6,29.64,WSW,245,14.0,24.0,19,0.00,,---,0.00,9.00,VWS V14.01,2013-04-30 02:30:00,
2013-04-29 19:34:00,84.1,37.4,29.64,WSW,239,19.0,20.0,19,0.00,,---,0.00,7.00,VWS V14.01,2013-04-30 02:34:00,
2013-04-29 19:39:00,84.0,37.3,29.64,West,268,15.0,25.0,19,0.00,,---,0.00,0.00,VWS V14.01,2013-04-30 02:39:00,
2013-04-29 19:44:00,83.6,37.0,29.64,SW,234,16.0,25.0,19,0.00,,---,0.00,0.00,VWS V14.01,2013-04-30 02:44:00,
2013-04-29 19:45:00,83.6,37.0,29.64,SW,230,15.0,25.0,19,0.00,,---,0.00,0.00,VWS V14.01,2013-04-30 02:45:00,
2013-04-29 19:49:00,83.4,36.9,29.63,WSW,254,10.0,19.0,19,0.00,,---,0.00,0.00,VWS V14.01,2013-04-30 02:49:00,
2013-04-29 19:54:00,83.2,36.7,29.63,WSW,249,14.0,23.0,19,0.00,,---,0.00,0.00,VWS V14.01,2013-04-30 02:54:00,
2013-04-29 19:59:00,83.0,35.2,29.63,West,272,12.0,23.0,18,0.00,,---,0.00,0.00,VWS V14.01,2013-04-30 02:59:00,
2013-04-29 20:00:00,83.0,36.5,29.63,West,265,14.0,23.0,19,0.00,,---,0.00,0.00,VWS V14.01,2013-04-30 03:00:00,
2013-04-29 20:04:00,82.8,35.0,29.64,WNW,296,12.0,19.0,18,0.00,,---,0.00,0.00,VWS V14.01,2013-04-30 03:04:00,
2013-04-29 20:09:00,82.6,34.8,29.63,WSW,249,15.0,20.0,18,0.00,,---,0.00,0.00,VWS V14.01,2013-04-30 03:09:00,
2013-04-29 20:14:00,82.2,34.5,29.63,West,259,16.0,24.0,18,0.00,,---,0.00,0.00,VWS V14.01,2013-04-30 03:14:00,
2013-04-29 20:15:00,82.2,35.9,29.62,WSW,247,14.0,24.0,19,0.00,,---,0.00,0.00,VWS V14.01,2013-04-30 03:15:00,
2013-04-29 20:19:00,82.0,35.7,29.63,West,263,10.0,22.0,19,0.00,,---,0.00,0.00,VWS V14.01,2013-04-30 03:19:00,
2013-04-29 20:24:00,81.8,36.8,29.63,WSW,237,16.0,22.0,20,0.00,,---,0.00,0.00,VWS V14.01,2013-04-30 03:24:00,
2013-04-29 20:29:00,81.4,35.2,29.63,WSW,244,15.0,22.0,19,0.00,,---,0.00,0.00,VWS V14.01,2013-04-30 03:29:00,
2013-04-29 20:30:00,81.2,35.1,29.63,WSW,257,7.0,22.0,19,0.00,,---,0.00,0.00,VWS V14.01,2013-04-30 03:30:00,
2013-04-29 20:34:00,81.2,35.1,29.63,WSW,245,7.0,17.0,19,0.00,,---,0.00,0.00,VWS V14.01,2013-04-30 03:34:00,
2013-04-29 20:39:00,81.1,35.0,29.63,WSW,248,10.0,17.0,19,0.00,,---,0.00,0.00,VWS V14.01,2013-04-30 03:39:00,
2013-04-29 20:44:00,80.9,33.5,29.63,West,260,14.0,17.0,18,0.00,,---,0.00,0.00,VWS V14.01,2013-04-30 03:44:00,
2013-04-29 20:45:00,80.9,33.5,29.63,WSW,247,13.0,17.0,18,0.00,,---,0.00,0.00,VWS V14.01,2013-04-30 03:45:00,
2013-04-29 20:49:00,80.9,33.5,29.63,WSW,237,17.0,17.0,18,0.00,,---,0.00,0.00,VWS V14.01,2013-04-30 03:49:00,
2013-04-29 20:54:00,80.9,33.5,29.63,SW,232,11.0,17.0,18,0.00,,---,0.00,0.00,VWS V14.01,2013-04-30 03:54:00,
2013-04-29 20:59:00,80.9,33.5,29.64,WSW,246,11.0,18.0,18,0.00,,---,0.00,0.00,VWS V14.01,2013-04-30 03:59:00,
2013-04-29 21:00:00,80.7,33.3,29.64,SW,236,7.0,18.0,18,0.00,,---,0.00,0.00,VWS V14.01,2013-04-30 04:00:00,
2013-04-29 21:01:00,80.9,33.5,29.64,WSW,246,10.0,18.0,18,0.00,,---,0.00,0.00,VWS V14.01,2013-04-30 04:01:00,
2013-04-29 21:02:00,80.7,33.3,29.64,WSW,248,7.0,13.0,18,0.00,,---,0.00,0.00,VWS V14.01,2013-04-30 04:02:00,
2013-04-29 21:15:00,80.6,35.9,29.65,WSW,248,10.0,21.0,20,0.00,,---,0.00,0.00,VWS V14.01,2013-04-30 04:15:00,
2013-04-29 21:20:00,80.1,36.0,29.64,WNW,291,10.0,21.0,20,0.00,,,0.00,0,weatherlink.com 1.10,2013-04-30 04:20:00,
2013-04-29 21:30:00,80.2,35.5,29.64,WSW,248,10.0,19.0,20,0.00,,---,0.00,0.00,VWS V14.01,2013-04-30 04:30:00,
2013-04-29 21:35:00,79.9,35.0,29.65,SW,228,9.0,19.0,20,0.00,,,0.00,0,weatherlink.com 1.10,2013-04-30 04:35:00,
2013-04-29 21:45:00,79.9,35.3,29.65,WSW,248,9.0,18.0,20,0.00,,---,0.00,0.00,VWS V14.01,2013-04-30 04:45:00,
2013-04-29 21:50:00,79.6,35.0,29.64,WSW,241,11.0,20.0,20,0.00,,,0.00,0,weatherlink.com 1.10,2013-04-30 04:50:00,
2013-04-29 22:00:00,79.5,36.2,29.65,WSW,248,9.0,20.0,21,0.00,,---,0.00,0.00,VWS V14.01,2013-04-30 05:00:00,
2013-04-29 22:05:00,79.0,40.0,29.64,West,261,10.0,20.0,25,0.00,,,0.00,0,weatherlink.com 1.10,2013-04-30 05:05:00,
2013-04-29 22:15:00,78.9,35.7,29.64,WSW,248,9.0,20.0,21,0.00,,---,0.00,0.00,VWS V14.01,2013-04-30 05:15:00,
2013-04-29 22:20:00,78.6,34.0,29.64,WSW,251,5.0,13.0,20,0.00,,,0.00,0,weatherlink.com 1.10,2013-04-30 05:20:00,
2013-04-29 22:30:00,78.5,35.4,29.65,WSW,248,7.0,16.0,21,0.00,,---,0.00,0.00,VWS V14.01,2013-04-30 05:30:00,
2013-04-29 22:35:00,78.5,35.0,29.64,SW,230,12.0,19.0,21,0.00,,,0.00,0,weatherlink.com 1.10,2013-04-30 05:35:00,
2013-04-29 22:45:00,78.5,36.5,29.64,WSW,248,10.0,19.0,22,0.00,,---,0.00,0.00,VWS V14.01,2013-04-30 05:45:00,
2013-04-29 22:50:00,78.1,36.0,29.64,WSW,238,15.0,19.0,22,0.00,,,0.00,0,weatherlink.com 1.10,2013-04-30 05:50:00,
2013-04-29 23:00:00,78.0,37.2,29.64,WSW,248,9.0,17.0,23,0.00,,---,0.00,0.00,VWS V14.01,2013-04-30 06:00:00,
2013-04-29 23:05:00,77.6,37.0,29.64,SW,236,6.0,15.0,23,0.00,,,0.00,0,weatherlink.com 1.10,2013-04-30 06:05:00,
2013-04-29 23:15:00,77.5,35.7,29.65,WSW,248,7.0,15.0,22,0.00,,---,0.00,0.00,VWS V14.01,2013-04-30 06:15:00,
2013-04-29 23:20:00,77.4,37.0,29.65,SSW,212,7.0,12.0,23,0.00,,,0.00,0,weatherlink.com 1.10,2013-04-30 06:20:00,
2013-04-29 23:30:00,77.2,36.6,29.65,WSW,248,8.0,16.0,23,0.00,,---,0.00,0.00,VWS V14.01,2013-04-30 06:30:00,
2013-04-29 23:35:00,77.2,35.0,29.64,SW,215,5.0,11.0,22,0.00,,,0.00,0,weatherlink.com 1.10,2013-04-30 06:35:00,
2013-04-29 23:45:00,77.0,37.5,29.64,SW,225,5.0,12.0,24,0.00,,---,0.00,0.00,VWS V14.01,2013-04-30 06:45:00,
2013-04-29 23:50:00,76.8,36.0,29.65,SW,229,11.0,13.0,23,0.00,,,0.00,0,weatherlink.com 1.10,2013-04-30 06:50:00,